owner,sensor,date,latitude,longitude,vertical_datum,wind_speed,wind_to_direction,wind_speed_of_gust,qcFlag 
ADCP,ioos:station:wmo:42364:1,2009-08-18T17:30:00Z,29.0600,-88.0900,122.0,3.0,200.0,99.0,'11111222,11111222,11144222' 
ADCP,ioos:station:wmo:42364:1,2009-08-18T17:45:00Z,29.0600,-88.0900,122.0,3.0,210.0,99.0,'11111222,11111222,11144222' 
ADCP,ioos:station:wmo:42364:1,2009-08-18T18:00:00Z,29.0600,-88.0900,122.0,3.0,220.0,99.0,'11111222,11111222,11144222' 
ADCP,ioos:station:wmo:42364:1,2009-08-18T18:30:00Z,29.0600,-88.0900,122.0,4.0,230.0,99.0,'11111222,11111222,11144222' 
ADCP,ioos:station:wmo:42364:1,2009-08-18T18:45:00Z,29.0600,-88.0900,122.0,3.0,210.0,99.0,'11111222,11111222,11144222' 
ADCP,ioos:station:wmo:42364:1,2009-08-18T19:00:00Z,29.0600,-88.0900,122.0,3.0,210.0,99.0,'11111222,11111222,11144222' 
ADCP,ioos:station:wmo:42364:1,2009-08-18T19:30:00Z,29.0600,-88.0900,122.0,2.0,210.0,99.0,'11111222,11111222,11144222' 
ADCP,ioos:station:wmo:42364:1,2009-08-18T19:45:00Z,29.0600,-88.0900,122.0,3.0,220.0,99.0,'11111222,11111222,11144222' 
ADCP,ioos:station:wmo:42364:1,2009-08-18T20:00:00Z,29.0600,-88.0900,122.0,3.0,190.0,99.0,'11111222,11111222,11144222' 
ADCP,ioos:station:wmo:42364:1,2009-08-18T20:15:00Z,29.0600,-88.0900,122.0,3.0,200.0,99.0,'11111222,11111222,11144222' 
ADCP,ioos:station:wmo:42364:1,2009-08-18T20:30:00Z,29.0600,-88.0900,122.0,4.0,190.0,99.0,'11111222,11111222,11144222' 
ADCP,ioos:station:wmo:42364:1,2009-08-18T20:45:00Z,29.0600,-88.0900,122.0,4.0,200.0,99.0,'11111222,11111222,11144222' 
ADCP,ioos:station:wmo:42364:1,2009-08-18T21:00:00Z,29.0600,-88.0900,122.0,5.0,210.0,99.0,'11111222,11111222,11144222' 
ADCP,ioos:station:wmo:42364:1,2009-08-18T21:15:00Z,29.0600,-88.0900,122.0,4.0,210.0,99.0,'11111222,11111222,11144222' 
ADCP,ioos:station:wmo:42364:1,2009-08-18T21:30:00Z,29.0600,-88.0900,122.0,4.0,190.0,99.0,'11111222,11111222,11144222' 
ADCP,ioos:station:wmo:42364:1,2009-08-18T21:45:00Z,29.0600,-88.0900,122.0,5.0,180.0,99.0,'11111222,11111222,11144222' 
ADCP,ioos:station:wmo:42364:1,2009-08-18T22:15:00Z,29.0600,-88.0900,122.0,5.0,200.0,99.0,'11111222,11111222,11144222' 
ADCP,ioos:station:wmo:42364:1,2009-08-18T22:30:00Z,29.0600,-88.0900,122.0,5.0,200.0,99.0,'11111222,11111222,11144222' 
ADCP,ioos:station:wmo:42364:1,2009-08-18T22:45:00Z,29.0600,-88.0900,122.0,5.0,200.0,99.0,'11111222,11111222,11144222' 
ADCP,ioos:station:wmo:42364:1,2009-08-18T23:00:00Z,29.0600,-88.0900,122.0,5.0,210.0,99.0,'11111222,11111222,11144222' 
ADCP,ioos:station:wmo:42364:1,2009-08-18T23:15:00Z,29.0600,-88.0900,122.0,6.0,220.0,99.0,'11111222,11111222,11144222' 
ADCP,ioos:station:wmo:42364:1,2009-08-18T23:30:00Z,29.0600,-88.0900,122.0,6.0,220.0,99.0,'11111222,11111222,11144222' 
ADCP,ioos:station:wmo:42364:1,2009-08-18T23:45:00Z,29.0600,-88.0900,122.0,7.0,230.0,99.0,'11111222,11111222,11144222' 
ADCP,ioos:station:wmo:42364:1,2009-08-19T00:00:00Z,29.0600,-88.0900,122.0,6.0,220.0,99.0,'11111222,11111222,11144222' 
ADCP,ioos:station:wmo:42364:1,2009-08-19T00:15:00Z,29.0600,-88.0900,122.0,6.0,220.0,99.0,'11111222,11111222,11144222' 
ADCP,ioos:station:wmo:42364:1,2009-08-19T00:30:00Z,29.0600,-88.0900,122.0,5.0,240.0,99.0,'11111222,11111222,11144222' 
ADCP,ioos:station:wmo:42364:1,2009-08-19T00:45:00Z,29.0600,-88.0900,122.0,6.0,250.0,99.0,'11111222,11111222,11144222' 
ADCP,ioos:station:wmo:42364:1,2009-08-19T01:15:00Z,29.0600,-88.0900,122.0,5.0,220.0,99.0,'11111222,11111222,11144222' 
ADCP,ioos:station:wmo:42364:1,2009-08-19T01:30:00Z,29.0600,-88.0900,122.0,4.0,220.0,99.0,'11111222,11111222,11144222' 
ADCP,ioos:station:wmo:42364:1,2009-08-19T01:45:00Z,29.0600,-88.0900,122.0,5.0,220.0,99.0,'11111222,11111222,11144222' 
ADCP,ioos:station:wmo:42364:1,2009-08-19T02:00:00Z,29.0600,-88.0900,122.0,4.0,230.0,99.0,'11111222,11111222,11144222' 
ADCP,ioos:station:wmo:42364:1,2009-08-19T02:15:00Z,29.0600,-88.0900,122.0,4.0,230.0,99.0,'11111222,11111222,11144222' 
ADCP,ioos:station:wmo:42364:1,2009-08-19T02:30:00Z,29.0600,-88.0900,122.0,4.0,230.0,99.0,'11111222,11111222,11144222' 
ADCP,ioos:station:wmo:42364:1,2009-08-19T02:45:00Z,29.0600,-88.0900,122.0,3.0,240.0,99.0,'11111222,11111222,11144222' 
ADCP,ioos:station:wmo:42364:1,2009-08-19T03:00:00Z,29.0600,-88.0900,122.0,3.0,220.0,99.0,'11111222,11111222,11144222' 
ADCP,ioos:station:wmo:42364:1,2009-08-19T03:15:00Z,29.0600,-88.0900,122.0,3.0,220.0,99.0,'11111222,11111222,11144222' 
ADCP,ioos:station:wmo:42364:1,2009-08-19T03:30:00Z,29.0600,-88.0900,122.0,3.0,230.0,99.0,'11111222,11111222,11144222' 
ADCP,ioos:station:wmo:42364:1,2009-08-19T03:45:00Z,29.0600,-88.0900,122.0,3.0,220.0,99.0,'11111222,11111222,11144222' 
ADCP,ioos:station:wmo:42364:1,2009-08-19T04:00:00Z,29.0600,-88.0900,122.0,3.0,230.0,99.0,'11111222,11111222,11144222' 
ADCP,ioos:station:wmo:42364:1,2009-08-19T04:15:00Z,29.0600,-88.0900,122.0,3.0,230.0,99.0,'11111222,11111222,11144222' 
ADCP,ioos:station:wmo:42364:1,2009-08-19T04:30:00Z,29.0600,-88.0900,122.0,3.0,230.0,99.0,'11111222,11111222,11144222' 
ADCP,ioos:station:wmo:42364:1,2009-08-19T04:45:00Z,29.0600,-88.0900,122.0,4.0,230.0,99.0,'11111222,11111222,11144222' 
ADCP,ioos:station:wmo:42364:1,2009-08-19T05:00:00Z,29.0600,-88.0900,122.0,4.0,230.0,99.0,'11111222,11111222,11144222' 
ADCP,ioos:station:wmo:42364:1,2009-08-19T05:15:00Z,29.0600,-88.0900,122.0,5.0,220.0,99.0,'11111222,11111222,11144222' 
ADCP,ioos:station:wmo:42364:1,2009-08-19T05:30:00Z,29.0600,-88.0900,122.0,5.0,230.0,99.0,'11111222,11111222,11144222' 
ADCP,ioos:station:wmo:42364:1,2009-08-19T05:45:00Z,29.0600,-88.0900,122.0,5.0,230.0,99.0,'11111222,11111222,11144222' 
ADCP,ioos:station:wmo:42364:1,2009-08-19T06:00:00Z,29.0600,-88.0900,122.0,5.0,240.0,99.0,'11111222,11111222,11144222' 
ADCP,ioos:station:wmo:42364:1,2009-08-19T06:15:00Z,29.0600,-88.0900,122.0,5.0,230.0,99.0,'11111222,11111222,11144222' 
ADCP,ioos:station:wmo:42364:1,2009-08-19T06:30:00Z,29.0600,-88.0900,122.0,5.0,240.0,99.0,'11111222,11111222,11144222' 
ADCP,ioos:station:wmo:42364:1,2009-08-19T06:45:00Z,29.0600,-88.0900,122.0,5.0,230.0,99.0,'11111222,11111222,11144222' 
ADCP,ioos:station:wmo:42364:1,2009-08-19T07:00:00Z,29.0600,-88.0900,122.0,5.0,240.0,99.0,'11111222,11111222,11144222' 
ADCP,ioos:station:wmo:42364:1,2009-08-19T07:15:00Z,29.0600,-88.0900,122.0,4.0,230.0,99.0,'11111222,11111222,11144222' 
ADCP,ioos:station:wmo:42364:1,2009-08-19T07:30:00Z,29.0600,-88.0900,122.0,5.0,230.0,99.0,'11111222,11111222,11144222' 
ADCP,ioos:station:wmo:42364:1,2009-08-19T07:45:00Z,29.0600,-88.0900,122.0,6.0,240.0,99.0,'11111222,11111222,11144222' 
ADCP,ioos:station:wmo:42364:1,2009-08-19T08:00:00Z,29.0600,-88.0900,122.0,6.0,240.0,99.0,'11111222,11111222,11144222' 
ADCP,ioos:station:wmo:42364:1,2009-08-19T08:15:00Z,29.0600,-88.0900,122.0,6.0,230.0,99.0,'11111222,11111222,11144222' 
ADCP,ioos:station:wmo:42364:1,2009-08-19T08:30:00Z,29.0600,-88.0900,122.0,5.0,230.0,99.0,'11111222,11111222,11144222' 
ADCP,ioos:station:wmo:42364:1,2009-08-19T08:45:00Z,29.0600,-88.0900,122.0,5.0,230.0,99.0,'11111222,11111222,11144222' 
ADCP,ioos:station:wmo:42364:1,2009-08-19T09:00:00Z,29.0600,-88.0900,122.0,5.0,230.0,99.0,'11111222,11111222,11144222' 
ADCP,ioos:station:wmo:42364:1,2009-08-19T09:15:00Z,29.0600,-88.0900,122.0,5.0,220.0,99.0,'11111222,11111222,11144222' 
ADCP,ioos:station:wmo:42364:1,2009-08-19T09:30:00Z,29.0600,-88.0900,122.0,4.0,220.0,99.0,'11111222,11111222,11144222' 
ADCP,ioos:station:wmo:42364:1,2009-08-19T09:45:00Z,29.0600,-88.0900,122.0,5.0,230.0,99.0,'11111222,11111222,11144222' 
ADCP,ioos:station:wmo:42364:1,2009-08-19T10:00:00Z,29.0600,-88.0900,122.0,5.0,230.0,99.0,'11111222,11111222,11144222' 
ADCP,ioos:station:wmo:42364:1,2009-08-19T10:15:00Z,29.0600,-88.0900,122.0,5.0,230.0,99.0,'11111222,11111222,11144222' 
ADCP,ioos:station:wmo:42364:1,2009-08-19T10:30:00Z,29.0600,-88.0900,122.0,5.0,230.0,99.0,'11111222,11111222,11144222' 
ADCP,ioos:station:wmo:42364:1,2009-08-19T10:45:00Z,29.0600,-88.0900,122.0,5.0,230.0,99.0,'11111222,11111222,11144222' 
ADCP,ioos:station:wmo:42364:1,2009-08-19T11:00:00Z,29.0600,-88.0900,122.0,4.0,240.0,99.0,'11111222,11111222,11144222' 
ADCP,ioos:station:wmo:42364:1,2009-08-19T11:15:00Z,29.0600,-88.0900,122.0,5.0,240.0,99.0,'11111222,11111222,11144222' 
ADCP,ioos:station:wmo:42364:1,2009-08-19T11:30:00Z,29.0600,-88.0900,122.0,5.0,240.0,99.0,'11111222,11111222,11144222' 
ADCP,ioos:station:wmo:42364:1,2009-08-19T11:45:00Z,29.0600,-88.0900,122.0,4.0,230.0,99.0,'11111222,11111222,11144222' 
ADCP,ioos:station:wmo:42364:1,2009-08-19T12:15:00Z,29.0600,-88.0900,122.0,4.0,230.0,99.0,'11111222,11111222,11144222' 
ADCP,ioos:station:wmo:42364:1,2009-08-19T12:30:00Z,29.0600,-88.0900,122.0,4.0,240.0,99.0,'11111222,11111222,11144222' 
ADCP,ioos:station:wmo:42364:1,2009-08-19T12:45:00Z,29.0600,-88.0900,122.0,4.0,240.0,99.0,'11111222,11111222,11144222' 
ADCP,ioos:station:wmo:42364:1,2009-08-19T13:00:00Z,29.0600,-88.0900,122.0,4.0,230.0,99.0,'11111222,11111222,11144222' 
ADCP,ioos:station:wmo:42364:1,2009-08-19T13:15:00Z,29.0600,-88.0900,122.0,5.0,230.0,99.0,'11111222,11111222,11144222' 
ADCP,ioos:station:wmo:42364:1,2009-08-19T13:30:00Z,29.0600,-88.0900,122.0,5.0,230.0,99.0,'11111222,11111222,11144222' 
ADCP,ioos:station:wmo:42364:1,2009-08-19T13:45:00Z,29.0600,-88.0900,122.0,6.0,240.0,99.0,'11111222,11111222,11144222' 
ADCP,ioos:station:wmo:42364:1,2009-08-19T14:15:00Z,29.0600,-88.0900,122.0,5.0,290.0,99.0,'11111222,11111222,11144222' 
ADCP,ioos:station:wmo:42364:1,2009-08-19T14:30:00Z,29.0600,-88.0900,122.0,3.0,320.0,99.0,'11111222,11111222,11144222' 
ADCP,ioos:station:wmo:42364:1,2009-08-19T14:45:00Z,29.0600,-88.0900,122.0,4.0,300.0,99.0,'11111222,11111222,11144222' 
ADCP,ioos:station:wmo:42364:1,2009-08-19T15:15:00Z,29.0600,-88.0900,122.0,3.0,260.0,99.0,'11111222,11111222,11144222' 
ADCP,ioos:station:wmo:42364:1,2009-08-19T15:30:00Z,29.0600,-88.0900,122.0,3.0,260.0,99.0,'11111222,11111222,11144222' 
ADCP,ioos:station:wmo:42364:1,2009-08-19T15:45:00Z,29.0600,-88.0900,122.0,4.0,240.0,99.0,'11111222,11111222,11144222' 
ADCP,ioos:station:wmo:42364:1,2009-08-19T16:00:00Z,29.0600,-88.0900,122.0,4.0,240.0,99.0,'11111222,11111222,11144222' 
ADCP,ioos:station:wmo:42364:1,2009-08-19T16:15:00Z,29.0600,-88.0900,122.0,7.0,280.0,99.0,'11111222,11111222,11144222' 
ADCP,ioos:station:wmo:42364:1,2009-08-19T16:30:00Z,29.0600,-88.0900,122.0,4.0,330.0,99.0,'11111222,11111222,11144222' 
ADCP,ioos:station:wmo:42364:1,2009-08-19T16:45:00Z,29.0600,-88.0900,122.0,4.0,210.0,99.0,'11111222,11111222,11144222' 
ADCP,ioos:station:wmo:42364:1,2009-08-19T17:00:00Z,29.0600,-88.0900,122.0,4.0,290.0,99.0,'11111222,11111222,11144222' 
ADCP,ioos:station:wmo:42364:1,2009-08-19T17:15:00Z,29.0600,-88.0900,122.0,0.0,0.0,99.0,'11111222,11111222,11144222' 
ADCP,ioos:station:wmo:42364:1,2009-08-19T17:30:00Z,29.0600,-88.0900,122.0,0.0,0.0,99.0,'11111222,11111222,11144222' 
ADCP,ioos:station:wmo:42364:1,2009-08-19T17:45:00Z,29.0600,-88.0900,122.0,0.0,0.0,99.0,'11111222,11111222,11144222' 
ADCP,ioos:station:wmo:42364:1,2009-08-19T18:00:00Z,29.0600,-88.0900,122.0,0.0,0.0,99.0,'11111222,11111222,11144222' 
ADCP,ioos:station:wmo:42364:1,2009-08-19T18:15:00Z,29.0600,-88.0900,122.0,99.0,330.0,99.0,'11144222,11111222,11144222' 
ADCP,ioos:station:wmo:42364:1,2009-08-19T18:30:00Z,29.0600,-88.0900,122.0,2.0,70.0,99.0,'11111222,11111222,11144222' 
ADCP,ioos:station:wmo:42364:1,2009-08-19T18:45:00Z,29.0600,-88.0900,122.0,3.0,20.0,99.0,'11111222,11111222,11144222' 
ADCP,ioos:station:wmo:42364:1,2009-08-19T19:00:00Z,29.0600,-88.0900,122.0,0.0,0.0,99.0,'11111222,11111222,11144222' 
ADCP,ioos:station:wmo:42364:1,2009-08-19T19:15:00Z,29.0600,-88.0900,122.0,0.0,0.0,99.0,'11111222,11111222,11144222' 
ADCP,ioos:station:wmo:42364:1,2009-08-19T19:30:00Z,29.0600,-88.0900,122.0,0.0,0.0,99.0,'11111222,11111222,11144222' 
ADCP,ioos:station:wmo:42364:1,2009-08-19T19:45:00Z,29.0600,-88.0900,122.0,0.0,0.0,99.0,'11111222,11111222,11144222' 
ADCP,ioos:station:wmo:42364:1,2009-08-19T20:00:00Z,29.0600,-88.0900,122.0,0.0,0.0,99.0,'11111222,11111222,11144222' 
ADCP,ioos:station:wmo:42364:1,2009-08-19T20:15:00Z,29.0600,-88.0900,122.0,0.0,0.0,99.0,'11111222,11111222,11144222' 
ADCP,ioos:station:wmo:42364:1,2009-08-19T20:30:00Z,29.0600,-88.0900,122.0,0.0,0.0,99.0,'11111222,11111222,11144222' 
ADCP,ioos:station:wmo:42364:1,2009-08-19T20:45:00Z,29.0600,-88.0900,122.0,0.0,0.0,99.0,'11111222,11111222,11144222' 
ADCP,ioos:station:wmo:42364:1,2009-08-19T21:00:00Z,29.0600,-88.0900,122.0,2.0,220.0,99.0,'11111222,11111222,11144222' 
ADCP,ioos:station:wmo:42364:1,2009-08-19T21:15:00Z,29.0600,-88.0900,122.0,2.0,150.0,99.0,'11111222,11111222,11144222' 
ADCP,ioos:station:wmo:42364:1,2009-08-19T21:30:00Z,29.0600,-88.0900,122.0,2.0,130.0,99.0,'11111222,11111222,11144222' 
ADCP,ioos:station:wmo:42364:1,2009-08-19T21:45:00Z,29.0600,-88.0900,122.0,0.0,0.0,99.0,'11111222,11111222,11144222' 
ADCP,ioos:station:wmo:42364:1,2009-08-19T22:00:00Z,29.0600,-88.0900,122.0,2.0,120.0,99.0,'11111222,11111222,11144222' 
ADCP,ioos:station:wmo:42364:1,2009-08-19T22:15:00Z,29.0600,-88.0900,122.0,2.0,120.0,99.0,'11111222,11111222,11144222' 
ADCP,ioos:station:wmo:42364:1,2009-08-19T22:30:00Z,29.0600,-88.0900,122.0,2.0,120.0,99.0,'11111222,11111222,11144222' 
ADCP,ioos:station:wmo:42364:1,2009-08-19T22:45:00Z,29.0600,-88.0900,122.0,2.0,140.0,99.0,'11111222,11111222,11144222' 
ADCP,ioos:station:wmo:42364:1,2009-08-19T23:00:00Z,29.0600,-88.0900,122.0,2.0,140.0,99.0,'11111222,11111222,11144222' 
ADCP,ioos:station:wmo:42364:1,2009-08-19T23:15:00Z,29.0600,-88.0900,122.0,2.0,170.0,99.0,'11111222,11111222,11144222' 
ADCP,ioos:station:wmo:42364:1,2009-08-19T23:30:00Z,29.0600,-88.0900,122.0,0.0,0.0,99.0,'11111222,11111222,11144222' 
ADCP,ioos:station:wmo:42364:1,2009-08-19T23:45:00Z,29.0600,-88.0900,122.0,0.0,0.0,99.0,'11111222,11111222,11144222' 
ADCP,ioos:station:wmo:42364:1,2009-08-20T00:00:00Z,29.0600,-88.0900,122.0,0.0,0.0,99.0,'11111222,11111222,11144222' 
ADCP,ioos:station:wmo:42364:1,2009-08-20T00:15:00Z,29.0600,-88.0900,122.0,2.0,240.0,99.0,'11111222,11111222,11144222' 
ADCP,ioos:station:wmo:42364:1,2009-08-20T00:30:00Z,29.0600,-88.0900,122.0,2.0,240.0,99.0,'11111222,11111222,11144222' 
ADCP,ioos:station:wmo:42364:1,2009-08-20T00:45:00Z,29.0600,-88.0900,122.0,2.0,230.0,99.0,'11111222,11111222,11144222' 
ADCP,ioos:station:wmo:42364:1,2009-08-20T01:00:00Z,29.0600,-88.0900,122.0,2.0,240.0,99.0,'11111222,11111222,11144222' 
ADCP,ioos:station:wmo:42364:1,2009-08-20T01:15:00Z,29.0600,-88.0900,122.0,3.0,230.0,99.0,'11111222,11111222,11144222' 
ADCP,ioos:station:wmo:42364:1,2009-08-20T01:30:00Z,29.0600,-88.0900,122.0,3.0,230.0,99.0,'11111222,11111222,11144222' 
ADCP,ioos:station:wmo:42364:1,2009-08-20T01:45:00Z,29.0600,-88.0900,122.0,3.0,230.0,99.0,'11111222,11111222,11144222' 
ADCP,ioos:station:wmo:42364:1,2009-08-20T02:00:00Z,29.0600,-88.0900,122.0,3.0,210.0,99.0,'11111222,11111222,11144222' 
ADCP,ioos:station:wmo:42364:1,2009-08-20T02:15:00Z,29.0600,-88.0900,122.0,4.0,220.0,99.0,'11111222,11111222,11144222' 
ADCP,ioos:station:wmo:42364:1,2009-08-20T02:30:00Z,29.0600,-88.0900,122.0,4.0,220.0,99.0,'11111222,11111222,11144222' 
ADCP,ioos:station:wmo:42364:1,2009-08-20T02:45:00Z,29.0600,-88.0900,122.0,4.0,220.0,99.0,'11111222,11111222,11144222' 
ADCP,ioos:station:wmo:42364:1,2009-08-20T03:00:00Z,29.0600,-88.0900,122.0,4.0,230.0,99.0,'11111222,11111222,11144222' 
ADCP,ioos:station:wmo:42364:1,2009-08-20T03:15:00Z,29.0600,-88.0900,122.0,3.0,240.0,99.0,'11111222,11111222,11144222' 
ADCP,ioos:station:wmo:42364:1,2009-08-20T03:30:00Z,29.0600,-88.0900,122.0,4.0,240.0,99.0,'11111222,11111222,11144222' 
ADCP,ioos:station:wmo:42364:1,2009-08-20T03:45:00Z,29.0600,-88.0900,122.0,4.0,230.0,99.0,'11111222,11111222,11144222' 
ADCP,ioos:station:wmo:42364:1,2009-08-20T04:00:00Z,29.0600,-88.0900,122.0,4.0,230.0,99.0,'11111222,11111222,11144222' 
ADCP,ioos:station:wmo:42364:1,2009-08-20T04:15:00Z,29.0600,-88.0900,122.0,4.0,240.0,99.0,'11111222,11111222,11144222' 
ADCP,ioos:station:wmo:42364:1,2009-08-20T04:30:00Z,29.0600,-88.0900,122.0,4.0,230.0,99.0,'11111222,11111222,11144222' 
ADCP,ioos:station:wmo:42364:1,2009-08-20T04:45:00Z,29.0600,-88.0900,122.0,4.0,240.0,99.0,'11111222,11111222,11144222' 
ADCP,ioos:station:wmo:42364:1,2009-08-20T05:15:00Z,29.0600,-88.0900,122.0,5.0,240.0,99.0,'11111222,11111222,11144222' 
ADCP,ioos:station:wmo:42364:1,2009-08-20T05:30:00Z,29.0600,-88.0900,122.0,5.0,250.0,99.0,'11111222,11111222,11144222' 
ADCP,ioos:station:wmo:42364:1,2009-08-20T05:45:00Z,29.0600,-88.0900,122.0,5.0,250.0,99.0,'11111222,11111222,11144222' 
ADCP,ioos:station:wmo:42364:1,2009-08-20T06:00:00Z,29.0600,-88.0900,122.0,6.0,260.0,99.0,'11111222,11111222,11144222' 
ADCP,ioos:station:wmo:42364:1,2009-08-20T06:15:00Z,29.0600,-88.0900,122.0,6.0,260.0,99.0,'11111222,11111222,11144222' 
ADCP,ioos:station:wmo:42364:1,2009-08-20T06:30:00Z,29.0600,-88.0900,122.0,7.0,260.0,99.0,'11111222,11111222,11144222' 
ADCP,ioos:station:wmo:42364:1,2009-08-20T06:45:00Z,29.0600,-88.0900,122.0,6.0,260.0,99.0,'11111222,11111222,11144222' 
ADCP,ioos:station:wmo:42364:1,2009-08-20T07:00:00Z,29.0600,-88.0900,122.0,7.0,260.0,99.0,'11111222,11111222,11144222' 
ADCP,ioos:station:wmo:42364:1,2009-08-20T07:15:00Z,29.0600,-88.0900,122.0,6.0,260.0,99.0,'11111222,11111222,11144222' 
ADCP,ioos:station:wmo:42364:1,2009-08-20T07:30:00Z,29.0600,-88.0900,122.0,6.0,270.0,99.0,'11111222,11111222,11144222' 
ADCP,ioos:station:wmo:42364:1,2009-08-20T07:45:00Z,29.0600,-88.0900,122.0,6.0,260.0,99.0,'11111222,11111222,11144222' 
ADCP,ioos:station:wmo:42364:1,2009-08-20T08:00:00Z,29.0600,-88.0900,122.0,6.0,260.0,99.0,'11111222,11111222,11144222' 
ADCP,ioos:station:wmo:42364:1,2009-08-20T08:15:00Z,29.0600,-88.0900,122.0,6.0,260.0,99.0,'11111222,11111222,11144222' 
ADCP,ioos:station:wmo:42364:1,2009-08-20T08:30:00Z,29.0600,-88.0900,122.0,6.0,260.0,99.0,'11111222,11111222,11144222' 
ADCP,ioos:station:wmo:42364:1,2009-08-20T08:45:00Z,29.0600,-88.0900,122.0,7.0,260.0,99.0,'11111222,11111222,11144222' 
ADCP,ioos:station:wmo:42364:1,2009-08-20T09:00:00Z,29.0600,-88.0900,122.0,6.0,260.0,99.0,'11111222,11111222,11144222' 
ADCP,ioos:station:wmo:42364:1,2009-08-20T09:15:00Z,29.0600,-88.0900,122.0,6.0,260.0,99.0,'11111222,11111222,11144222' 
ADCP,ioos:station:wmo:42364:1,2009-08-20T09:30:00Z,29.0600,-88.0900,122.0,7.0,270.0,99.0,'11111222,11111222,11144222' 
ADCP,ioos:station:wmo:42364:1,2009-08-20T09:45:00Z,29.0600,-88.0900,122.0,7.0,270.0,99.0,'11111222,11111222,11144222' 
ADCP,ioos:station:wmo:42364:1,2009-08-20T10:00:00Z,29.0600,-88.0900,122.0,6.0,270.0,99.0,'11111222,11111222,11144222' 
ADCP,ioos:station:wmo:42364:1,2009-08-20T10:15:00Z,29.0600,-88.0900,122.0,6.0,270.0,99.0,'11111222,11111222,11144222' 
ADCP,ioos:station:wmo:42364:1,2009-08-20T10:30:00Z,29.0600,-88.0900,122.0,6.0,270.0,99.0,'11111222,11111222,11144222' 
ADCP,ioos:station:wmo:42364:1,2009-08-20T10:45:00Z,29.0600,-88.0900,122.0,5.0,260.0,99.0,'11111222,11111222,11144222' 
ADCP,ioos:station:wmo:42364:1,2009-08-20T11:00:00Z,29.0600,-88.0900,122.0,7.0,270.0,99.0,'11111222,11111222,11144222' 
ADCP,ioos:station:wmo:42364:1,2009-08-20T11:15:00Z,29.0600,-88.0900,122.0,7.0,270.0,99.0,'11111222,11111222,11144222' 
ADCP,ioos:station:wmo:42364:1,2009-08-20T11:30:00Z,29.0600,-88.0900,122.0,7.0,280.0,99.0,'11111222,11111222,11144222' 
ADCP,ioos:station:wmo:42364:1,2009-08-20T11:45:00Z,29.0600,-88.0900,122.0,6.0,280.0,99.0,'11111222,11111222,11144222' 
ADCP,ioos:station:wmo:42364:1,2009-08-20T12:00:00Z,29.0600,-88.0900,122.0,6.0,280.0,99.0,'11111222,11111222,11144222' 
ADCP,ioos:station:wmo:42364:1,2009-08-20T12:15:00Z,29.0600,-88.0900,122.0,6.0,280.0,99.0,'11111222,11111222,11144222' 
ADCP,ioos:station:wmo:42364:1,2009-08-20T12:30:00Z,29.0600,-88.0900,122.0,5.0,280.0,99.0,'11111222,11111222,11144222' 
ADCP,ioos:station:wmo:42364:1,2009-08-20T12:45:00Z,29.0600,-88.0900,122.0,5.0,280.0,99.0,'11111222,11111222,11144222' 
ADCP,ioos:station:wmo:42364:1,2009-08-20T13:00:00Z,29.0600,-88.0900,122.0,6.0,270.0,99.0,'11111222,11111222,11144222' 
ADCP,ioos:station:wmo:42364:1,2009-08-20T13:15:00Z,29.0600,-88.0900,122.0,5.0,280.0,99.0,'11111222,11111222,11144222' 
ADCP,ioos:station:wmo:42364:1,2009-08-20T13:30:00Z,29.0600,-88.0900,122.0,4.0,280.0,99.0,'11111222,11111222,11144222' 
ADCP,ioos:station:wmo:42364:1,2009-08-20T13:45:00Z,29.0600,-88.0900,122.0,4.0,280.0,99.0,'11111222,11111222,11144222' 
ADCP,ioos:station:wmo:42364:1,2009-08-20T14:15:00Z,29.0600,-88.0900,122.0,4.0,280.0,99.0,'11111222,11111222,11144222' 
ADCP,ioos:station:wmo:42364:1,2009-08-20T14:30:00Z,29.0600,-88.0900,122.0,3.0,270.0,99.0,'11111222,11111222,11144222' 
ADCP,ioos:station:wmo:42364:1,2009-08-20T14:45:00Z,29.0600,-88.0900,122.0,4.0,280.0,99.0,'11111222,11111222,11144222' 
ADCP,ioos:station:wmo:42364:1,2009-08-20T15:00:00Z,29.0600,-88.0900,122.0,4.0,280.0,99.0,'11111222,11111222,11144222' 
ADCP,ioos:station:wmo:42364:1,2009-08-20T15:15:00Z,29.0600,-88.0900,122.0,4.0,280.0,99.0,'11111222,11111222,11144222' 
ADCP,ioos:station:wmo:42364:1,2009-08-20T15:30:00Z,29.0600,-88.0900,122.0,4.0,280.0,99.0,'11111222,11111222,11144222' 
ADCP,ioos:station:wmo:42364:1,2009-08-20T15:45:00Z,29.0600,-88.0900,122.0,4.0,290.0,99.0,'11111222,11111222,11144222' 
ADCP,ioos:station:wmo:42364:1,2009-08-20T16:00:00Z,29.0600,-88.0900,122.0,4.0,280.0,99.0,'11111222,11111222,11144222' 
ADCP,ioos:station:wmo:42364:1,2009-08-20T16:15:00Z,29.0600,-88.0900,122.0,5.0,330.0,99.0,'11111222,11111222,11144222' 
ADCP,ioos:station:wmo:42364:1,2009-08-20T16:30:00Z,29.0600,-88.0900,122.0,4.0,310.0,99.0,'11111222,11111222,11144222' 
ADCP,ioos:station:wmo:42364:1,2009-08-20T16:45:00Z,29.0600,-88.0900,122.0,4.0,310.0,99.0,'11111222,11111222,11144222' 
ADCP,ioos:station:wmo:42364:1,2009-08-20T17:00:00Z,29.0600,-88.0900,122.0,3.0,300.0,99.0,'11111222,11111222,11144222' 
ADCP,ioos:station:wmo:42364:1,2009-08-20T17:15:00Z,29.0600,-88.0900,122.0,4.0,300.0,99.0,'11111222,11111222,11144222' 
ADCP,ioos:station:wmo:42364:1,2009-08-20T17:30:00Z,29.0600,-88.0900,122.0,4.0,290.0,99.0,'11111222,11111222,11144222' 
ADCP,ioos:station:wmo:42364:1,2009-08-20T17:45:00Z,29.0600,-88.0900,122.0,3.0,290.0,99.0,'11111222,11111222,11144222' 
ADCP,ioos:station:wmo:42364:1,2009-08-20T18:15:00Z,29.0600,-88.0900,122.0,4.0,300.0,99.0,'11111222,11111222,11144222' 
ADCP,ioos:station:wmo:42364:1,2009-08-20T18:30:00Z,29.0600,-88.0900,122.0,8.0,320.0,99.0,'11111222,11111222,11144222' 
ADCP,ioos:station:wmo:42364:1,2009-08-20T18:45:00Z,29.0600,-88.0900,122.0,7.0,330.0,99.0,'11111222,11111222,11144222' 
ADCP,ioos:station:wmo:42364:1,2009-08-20T19:00:00Z,29.0600,-88.0900,122.0,5.0,340.0,99.0,'11111222,11111222,11144222' 
ADCP,ioos:station:wmo:42364:1,2009-08-20T19:15:00Z,29.0600,-88.0900,122.0,3.0,330.0,99.0,'11111222,11111222,11144222' 
ADCP,ioos:station:wmo:42364:1,2009-08-20T19:30:00Z,29.0600,-88.0900,122.0,3.0,330.0,99.0,'11111222,11111222,11144222' 
ADCP,ioos:station:wmo:42364:1,2009-08-20T19:45:00Z,29.0600,-88.0900,122.0,2.0,330.0,99.0,'11111222,11111222,11144222' 
ADCP,ioos:station:wmo:42364:1,2009-08-20T20:15:00Z,29.0600,-88.0900,122.0,3.0,300.0,99.0,'11111222,11111222,11144222' 
ADCP,ioos:station:wmo:42364:1,2009-08-20T20:30:00Z,29.0600,-88.0900,122.0,6.0,310.0,99.0,'11111222,11111222,11144222' 
ADCP,ioos:station:wmo:42364:1,2009-08-20T20:45:00Z,29.0600,-88.0900,122.0,8.0,330.0,99.0,'11111222,11111222,11144222' 
ADCP,ioos:station:wmo:42364:1,2009-08-20T21:00:00Z,29.0600,-88.0900,122.0,12.0,330.0,99.0,'11111222,11111222,11144222' 
ADCP,ioos:station:wmo:42364:1,2009-08-20T21:15:00Z,29.0600,-88.0900,122.0,8.0,340.0,99.0,'11111222,11111222,11144222' 
ADCP,ioos:station:wmo:42364:1,2009-08-20T21:30:00Z,29.0600,-88.0900,122.0,3.0,350.0,99.0,'11111222,11111222,11144222' 
ADCP,ioos:station:wmo:42364:1,2009-08-20T21:45:00Z,29.0600,-88.0900,122.0,7.0,330.0,99.0,'11111222,11111222,11144222' 
ADCP,ioos:station:wmo:42364:1,2009-08-20T22:15:00Z,29.0600,-88.0900,122.0,0.0,0.0,99.0,'11111222,11111222,11144222' 
ADCP,ioos:station:wmo:42364:1,2009-08-20T22:30:00Z,29.0600,-88.0900,122.0,5.0,340.0,99.0,'11111222,11111222,11144222' 